Terminal Aerodrome Forecast
Issued by NWS

Home | Current Version | Previous Version | Text Only | Print | Product List | Glossary On
Versions: 1 2 3 4 5 6 7 8 9 10 11 12 13 14 15 16 17 18 19 20 21 22 23 24 25 26 27 28 29 30 31 32 33 34 35 36 37 38 39 40 41 42 43 44 45 46 47 48 49 50
000
FTAK31 PANC 290531
TAFADQ
TAF
PADQ 290531Z 2906/3006 03020KT 3SM -RA BR OVC007
      TEMPO 2906/2910 03020G30KT 6SM -RA SCT007 OVC014
     FM291800 01012KT 2SM -RA BR OVC005
     FM292200 12010KT 5SM -SHRA BR BKN015 OVC025=

USA.gov is the U.S. government's official web portal to all federal, state and local government web resources and services.